User: anonymous   Login
Location: Elstree
(51.6403°N, 0.2969°W)
Time: 03:56:11
(UTC+00:00)
Language:

YAOGAN 1 - Orbit

View from above orbital plane
View from above orbital plane
View from above satellite
View from above satellite

Ground track
Ground track

The orbit data is extracted from the following two-line orbital elements,

1 29092U 06015A   21128.17119122  .00000072  00000-0  15362-4 0  9992
2 29092  97.9115 155.9433 0001469  91.6941 268.4441 14.83154391812960
Epoch (UTC): 08 May 2021 04:06:30
Eccentricity: 0.0001469
inclination: 97.9115°
perigee height: 618 km
apogee height: 620 km
right ascension of ascending node: 155.9433°
argument of perigee: 91.6941°
revolutions per day: 14.83154391
mean anomaly at epoch: 268.4441°
orbit number at epoch: 81296

The dashed part of the orbit path shows where the satellite is in the earth's shadow,  

DLR